Regional Weather Roundup
Issued by NWS Albany, NY

Home | Current Version | Previous Version | Text Only | Print | Product List | Glossary On
Versions: 1 2 3 4 5 6 7 8 9 10 11 12 13 14 15 16 17 18 19 20 21 22 23 24 25 26 27 28 29 30 31 32 33 34 35 36 37 38 39 40 41 42 43 44 45 46 47 48 49 50
000
ASUS41 KALY 170610
RWRALY

NEW YORK STATE HOURLY WEATHER ROUNDUP
NATIONAL WEATHER SERVICE ALBANY NY
100 AM EST WED DEC 17 2014

NOTE: "FAIR" INDICATES FEW OR NO CLOUDS BELOW 12,000 FEET WITH NO
SIGNIFICANT WEATHER AND/OR NO OBSTRUCTIONS TO VISIBILITY.

NYZ032-033-038>043-046>054-057>066-NYZ062>081-170700-
EAST


CITY           SKY/WX    TMP DP  RH WIND       PRES   REMARKS
ALBANY         FOG       37  35  92 E3        29.85F VSB 1
GLENS FALLS    LGT RAIN  34  32  92 CALM      29.85F FOG
POUGHKEEPSIE   CLOUDY    41  39  93 CALM      29.83F FOG
NEWBURGH       LGT RAIN  39  39 100 VRB5      29.83F FOG
MONTGOMERY     CLOUDY    40  39  97 N3        29.82F FOG
WHITE PLAINS   FOG       44  43  96 CALM      29.80F VSB 3/4
ISLIP          RAIN      46  44  93 N6        29.79F FOG
NEW YORK CITY  LGT RAIN  43  42  97 NE6       29.82F FOG
CENTRAL PARK   CLOUDY    45  42  89 CALM      29.84S FOG
$$

NYZ005>009-017-018-044>046-055-056-170700-
CENTRAL


CITY           SKY/WX    TMP DP  RH WIND       PRES   REMARKS
FULTON         LGT RAIN  39  37  92 SE5       29.79F FOG
SYRACUSE       LGT RAIN  37  37 100 S3        29.80F FOG
ROME           CLOUDY    37  36  96 SE5       29.83F FOG     WCI  33
ELMIRA         CLOUDY    40  39  97 CALM      29.81S
BINGHAMTON     FOG       38  38 100 SW5       29.79F VSB 1/2 WCI  34
MONTICELLO     CLOUDY    37  37 100 CALM      29.82F VSB 1/4
$$

NYZ026>034-041>043-170700-
NORTH


CITY           SKY/WX    TMP DP  RH WIND       PRES   REMARKS
WATERTOWN      CLOUDY    43  37  79 S6        29.77S
FORT DRUM      NOT AVBL
MASSENA        CLOUDY    33  31  92 E8        29.82F FOG     WCI  26
SARANAC LAKE   CLOUDY    32  50 100 CALM      29.76F
PLATTSBURGH    LGT RAIN  33  32  96 CALM      29.83S FOG
$$

NYZ001>004-010>016-019>021-170700-
WEST


CITY           SKY/WX    TMP DP  RH WIND       PRES   REMARKS
NIAGARA FALLS  LGT RAIN  41  40  96 SW14      29.76S
BUFFALO        LGT RAIN  42  40  92 SW16G24   29.77S FOG
DUNKIRK        LGT RAIN  43  41  93 SW18G29   29.80S
JAMESTOWN      CLOUDY    39  37  93 SW9       29.80R WCI  33
WELLSVILLE     LGT RAIN  40  37  89 W8        29.79S WCI  34
ROCHESTER      CLOUDY    44  40  85 SW8       29.77S
PENN YAN       CLOUDY    42  38  85 S8        29.79F
$$

             KEY
       WCI = WIND CHILL INDEX
       VSB = VISIBILITY
       HX  = HEAT INDEX
$$



USA.gov is the U.S. government's official web portal to all federal, state and local government web resources and services.